DO1SC Weather Reports


time (UTC)temp
C
wind
direction
speed
KPH
gust
KPH
rain 1hr
cm
rain 24hr
cm
rain mn
cm
humidity
%
barometer
mb
20260506044532 10 93 4.8 9.7 0.00 0.00 0.00 94 1006.5
20260506043526 10 79 4.8 9.7 0.00 0.00 0.00 95 1006.4
20260506042535 10 92 3.2 9.7 0.00 0.00 0.00 96 1006.3
20260506041528 10 68 3.2 8.0 0.00 0.00 0.00 96 1006.4
20260506040518 10 73 3.2 8.0 0.00 0.00 0.00 96 1006.3
20260506035530 10 79 3.2 8.0 0.00 0.00 0.00 96 1006.3
20260506034522 10 76 4.8 8.0 0.00 0.00 0.00 96 1006.3
20260506033536 11 114 3.2 6.4 0.00 0.00 0.00 96 1006.2
20260506032525 11 98 3.2 6.4 0.00 0.00 0.00 96 1006.3
20260506031516 11 82 3.2 8.0 0.00 0.00 0.00 95 1006.2
20260506030531 11 104 3.2 6.4 0.00 0.00 0.00 95 1006.3
20260506025520 11 112 3.2 6.4 0.00 0.00 0.00 95 1006.4
20260506024532 11 85 3.2 6.4 0.00 0.00 0.00 95 1006.4
20260506023523 11 93 3.2 6.4 0.00 0.00 0.00 95 1006.4
20260506022535 11 92 3.2 9.7 0.00 0.00 0.00 95 1006.5
20260506021530 11 67 3.2 6.4 0.00 0.00 0.00 95 1006.5
20260506020518 11 112 3.2 9.7 0.00 0.00 0.00 95 1006.5
20260506015529 11 63 3.2 6.4 0.00 0.00 0.00 95 1006.5
20260506014521 11 89 3.2 9.7 0.00 0.00 0.00 94 1006.6
20260506013532 11 118 3.2 9.7 0.00 0.00 0.00 95 1006.7
20260506012524 11 86 3.2 9.7 0.00 0.00 0.00 95 1006.7
20260506011536 11 110 3.2 9.7 0.00 0.00 0.00 95 1006.8
20260506010527 11 45 4.8 9.7 0.00 0.00 0.00 95 1006.8
20260506005519 11 110 4.8 9.7 0.00 0.00 0.00 95 1006.7
20260506004531 11 128 3.2 9.7 0.00 0.00 0.00 95 1006.7
20260506003525 11 79 3.2 9.7 0.00 0.00 0.00 96 1006.7
20260506002534 11 62 3.2 8.0 0.00 0.00 0.00 96 1006.9
20260506001525 11 128 4.8 9.7 0.00 0.00 0.00 96 1007.0
20260506000517 11 76 3.2 6.4 0.00 0.00 0.00 96 1007.0
20260505235528 11 101 3.2 8.0 0.00 0.00 0.00 95 1007.2
20260505234523 11 140 6.4 16.1 0.00 0.00 0.00 95 1007.3
20260505233532 11 83 3.2 11.3 0.00 0.00 0.00 95 1007.2
20260505232527 11 63 4.8 9.7 0.00 0.00 0.00 96 1007.1
20260505231535 11 140 4.8 8.0 0.00 0.00 0.00 96 1007.0
20260505230527 11 41 3.2 6.4 0.00 0.00 0.00 96 1007.0
20260505225521 11 79 4.8 14.5 0.00 0.00 0.00 96 1007.1
20260505224530 10 56 3.2 6.4 0.00 0.00 0.00 96 1007.0
20260505223521 10 171 3.2 9.7 0.00 0.00 0.00 96 1007.1
20260505222533 10 117 3.2 8.0 0.00 0.00 0.00 96 1007.1
20260505221527 10 135 4.8 11.3 0.00 0.00 0.00 96 1007.1
20260505220519 10 65 3.2 9.7 0.00 0.00 0.00 96 1007.1
20260505215527 11 53 4.8 9.7 0.00 0.00 0.00 96 1007.3
20260505214521 10 141 1.6 9.7 0.00 0.00 0.00 96 1007.2
20260505213533 10 129 4.8 12.9 0.00 0.00 0.00 96 1007.3
20260505212525 10 158 4.8 9.7 0.00 0.00 0.00 96 1007.2
20260505211533 10 75 4.8 9.7 0.00 0.00 0.00 96 1007.3
20260505210525 10 78 4.8 11.3 0.00 0.00 0.00 96 1007.5
20260505205517 10 96 4.8 9.7 0.00 0.00 0.00 96 1007.6
20260505204532 10 114 4.8 9.7 0.00 0.00 0.00 96 1007.6
20260505203520 10 137 3.2 8.0 0.00 0.00 0.00 96 1007.6
20260505202533 10 109 1.6 6.4 0.00 0.00 0.00 95 1007.5
20260505201524 10 10 0.0 3.2 0.00 0.00 0.00 95 1007.4
20260505200535 11 105 1.6 4.8 0.00 0.00 0.00 94 1007.1
20260505195529 11 303 1.6 4.8 0.00 0.00 0.00 93 1006.8
20260505194517 11 268 0.0 4.8 0.00 0.00 0.00 92 1006.7
20260505193529 11 280 3.2 14.5 0.00 0.00 0.00 91 1006.8
20260505192520 11 277 4.8 14.5 0.00 0.00 0.00 94 1006.9
20260505191532 11 26 1.6 6.4 0.00 0.00 0.00 95 1007.3
20260505190526 11 56 3.2 6.4 0.00 0.00 0.00 94 1007.6
20260505185533 11 47 1.6 4.8 0.00 0.00 0.00 94 1007.7
20260505184524 11 102 4.8 9.7 0.00 0.00 0.00 93 1007.7
20260505183536 11 97 3.2 9.7 0.00 0.00 0.00 92 1007.8
20260505182528 11 108 4.8 11.3 0.00 0.00 0.00 92 1008.1
20260505181519 12 116 3.2 11.3 0.00 0.00 0.00 88 1008.2
20260505180530 13 116 8.0 29.0 0.00 0.00 0.00 84 1008.1
20260505175521 14 297 4.8 11.3 0.00 0.00 0.00 88 1006.8
20260505174533 14 307 4.8 14.5 0.00 0.00 0.00 86 1006.8
20260505173525 14 303 4.8 9.7 0.00 0.00 0.00 85 1006.8
20260505172536 15 294 4.8 14.5 0.00 0.00 0.00 85 1006.8
20260505171525 15 309 9.7 22.5 0.00 0.00 0.00 84 1006.8
20260505170536 15 314 6.4 11.3 0.00 0.00 0.00 83 1006.9
20260505165527 15 304 6.4 12.9 0.00 0.00 0.00 83 1007.0
20260505164518 15 300 6.4 14.5 0.00 0.00 0.00 82 1007.1
20260505163533 15 311 4.8 11.3 0.00 0.00 0.00 83 1007.1
20260505162522 15 305 4.8 8.0 0.00 0.00 0.00 83 1007.4
20260505161532 15 295 3.2 6.4 0.00 0.00 0.00 83 1007.5
20260505160522 15 295 4.8 9.7 0.00 0.00 0.00 83 1007.4
20260505152531 16 300 6.4 12.9 0.00 0.00 0.00 76 1007.8
20260505151520 16 301 4.8 17.7 0.00 0.00 0.00 74 1007.7
20260505150531 16 319 9.7 22.5 0.00 0.00 0.00 73 1008.0
20260505140519 17 300 6.4 19.3 0.00 0.00 0.00 67 1008.3
20260505124528 17 301 8.0 19.3 0.00 0.00 0.00 70 1008.9
20260505123520 17 291 9.7 19.3 0.00 0.00 0.00 71 1008.9
20260505122536 17 293 8.0 12.9 0.00 0.00 0.00 73 1009.1
20260505121523 16 291 8.0 14.5 0.00 0.00 0.00 75 1009.2
20260505120534 17 293 8.0 14.5 0.00 0.00 0.00 74 1009.1
20260505115540 17 298 9.7 19.3 0.00 0.00 0.00 71 1009.1
20260505114520 17 295 8.0 16.1 0.00 0.00 0.00 70 1009.2
20260505113528 18 312 9.7 17.7 0.00 0.00 0.00 67 1009.3
20260505112520 18 306 8.0 20.9 0.00 0.00 0.00 65 1009.3
20260505111535 18 295 9.7 19.3 0.00 0.00 0.00 65 1009.4
20260505110527 18 299 8.0 19.3 0.00 0.00 0.00 66 1009.5
20260505101520 17 307 6.4 14.5 0.00 0.00 0.00 69 1010.0
20260505100530 17 297 8.0 14.5 0.00 0.00 0.00 72 1009.9
20260505095522 17 288 6.4 12.9 0.00 0.00 0.00 72 1010.1
20260505094533 16 310 4.8 12.9 0.00 0.00 0.00 73 1010.1
20260505093524 16 300 9.7 16.1 0.00 0.00 0.00 74 1010.2
20260505092516 16 300 8.0 14.5 0.00 0.00 0.00 74 1010.2
20260505091528 15 308 6.4 12.9 0.00 0.00 0.00 77 1010.4
20260505090520 15 300 8.0 14.5 0.00 0.00 0.00 78 1010.4
20260505085532 16 292 6.4 14.5 0.00 0.00 0.00 76 1010.6
20260505084523 15 306 1.6 4.8 0.00 0.00 0.00 77 1010.6
20260505083535 15 289 1.6 4.8 0.00 0.00 0.00 78 1010.6
20260505082526 14 309 1.6 4.8 0.00 0.00 0.00 81 1010.7
20260505081518 14 312 4.8 6.4 0.00 0.00 0.00 81 1010.8
20260505080532 13 310 1.6 3.2 0.00 0.00 0.00 82 1010.8
20260505075523 13 101 3.2 8.0 0.00 0.00 0.00 83 1010.7
20260505074532 14 150 3.2 6.4 0.00 0.00 0.00 82 1010.8
20260505073523 13 56 3.2 8.0 0.00 0.00 0.00 85 1010.8
20260505072538 13 154 1.6 6.4 0.00 0.00 0.00 86 1010.8
20260505071527 13 136 3.2 8.0 0.00 0.00 0.00 86 1010.8
20260505070519 13 174 1.6 6.4 0.00 0.00 0.00 87 1010.9
20260505065531 12 158 3.2 6.4 0.00 0.00 0.00 88 1010.8
20260505064522 12 127 3.2 6.4 0.00 0.00 0.00 92 1010.6
20260505063536 11 300 1.6 4.8 0.00 0.00 0.00 96 1010.8
20260505062525 11 288 1.6 4.8 0.00 0.00 0.00 96 1010.8
20260505061516 11 292 1.6 4.8 0.00 0.00 0.00 96 1010.9
20260505060531 11 308 1.6 6.4 0.00 0.00 0.00 96 1011.0
20260505055518 11 301 3.2 6.4 0.00 0.00 0.00 96 1011.1
20260505054530 11 299 3.2 4.8 0.00 0.00 0.00 96 1010.9
20260505053522 11 348 1.6 4.8 0.00 0.00 0.00 95 1010.9
20260505052533 11 289 1.6 6.4 0.00 0.00 0.00 95 1010.9
20260505051524 11 317 3.2 6.4 0.00 0.00 0.00 94 1011.0
20260505050517 11 306 3.2 6.4 0.00 0.00 0.00 94 1011.0